Home   Weather   Finland   Oulu   Past weeks
Flag for Finland

Past Weather in Oulu, Finland — Yesterday and Last 2 Weeks

Currently: 39 °F. Sunny. (Weather station: Oulu Airport, Finland). See more current weather

Past Weather in Oulu — Graph

°F

Oulu Temperature Yesterday

Maximum temperature yesterday: 43 °F (at 2:20 pm)
Minimum temperature yesterday: 32 °F (at 6:20 am)
Average temperature yesterday: 37 °F

High & Low Weather Summary for the Past Weeks

 TemperatureHumidityPressure
High54 °F (Apr 9, 4:20 pm)100% (Mar 30, 1:20 pm)30.18 "Hg (Mar 30, 1:20 pm)
Low5 °F (Apr 4, 6:50 am)37% (Apr 3, 3:50 pm)29.30 "Hg (Apr 11, 3:50 am)
Average31 °F79%29.73 "Hg
* Reported Mar 29 6:20 am — Apr 13 7:20 am, Oulu. Weather by CustomWeather, © 2024

Note: Actual official high and low records may vary slightly from our data, if they occured in-between our weather recording intervals... More about our weather records

Oulu Weather History for the Previous 24 Hours

Scroll right to see more
 ConditionsComfort  
Time TempWeatherWind HumidityBarometerVisibility
7:20 am
Sat, Apr 13
36 °FSunny.7 mph75%29.68 "Hg10 mi
6:50 am36 °FSunny.7 mph75%29.68 "Hg10 mi
6:20 am34 °FSunny.7 mph81%29.68 "Hg10 mi
5:50 am34 °FSunny.9 mph75%29.68 "Hg10 mi
5:20 am34 °FClear.8 mph81%29.71 "Hg10 mi
4:20 am36 °FClear.8 mph75%29.74 "Hg10 mi
3:50 am36 °FClear.7 mph75%29.74 "Hg10 mi
3:20 am36 °FClear.7 mph75%29.74 "Hg10 mi
2:50 am36 °FClear.5 mph81%29.74 "Hg10 mi
2:20 am36 °FClear.6 mph81%29.77 "Hg10 mi
1:50 am36 °FPassing clouds.5 mph75%29.77 "HgN/A
1:20 am36 °FClear.7 mph75%29.77 "Hg10 mi
12:50 am34 °FClear.6 mph87%29.77 "Hg10 mi
12:20 am34 °FClear.5 mph81%29.80 "Hg10 mi
11:50 pm
Fri, Apr 12
34 °FClear.5 mph87%29.80 "Hg10 mi
11:20 pm34 °FClear.3 mph81%29.83 "Hg10 mi
10:50 pm34 °FClear.1 mph81%29.83 "Hg10 mi
10:20 pm34 °FClear.1 mph81%29.83 "Hg10 mi
9:50 pm34 °FClear.2 mph81%29.83 "Hg10 mi
9:20 pm34 °FClear.2 mph81%29.83 "Hg10 mi
8:50 pm37 °FClear.2 mph70%29.83 "Hg10 mi
8:20 pm39 °FSunny.3 mph65%29.83 "Hg10 mi
7:50 pm41 °FSunny.3 mph66%29.83 "Hg10 mi
6:50 pm41 °FSunny.5 mph66%29.83 "Hg10 mi
6:20 pm39 °FSunny.8 mph70%29.83 "Hg10 mi
5:50 pm41 °FSunny.7 mph66%29.86 "Hg10 mi
5:20 pm41 °FSunny.10 mph66%29.86 "Hg10 mi
4:20 pm41 °FSunny.12 mph61%29.86 "Hg10 mi
3:50 pm41 °FSunny.12 mph61%29.86 "Hg10 mi
3:20 pm41 °FPassing clouds.8 mph61%29.83 "HgN/A
2:50 pm41 °FSunny.12 mph61%29.83 "Hg10 mi
2:20 pm43 °FSunny.10 mph61%29.83 "Hg10 mi
1:50 pm41 °FSunny.10 mph57%29.83 "Hg10 mi
1:20 pm41 °FSunny.13 mph61%29.83 "Hg10 mi
12:50 pm41 °FSunny.14 mph66%29.80 "Hg10 mi
12:20 pm39 °FSunny.16 mph65%29.80 "Hg10 mi
11:50 am39 °FSunny.15 mph70%29.80 "Hg10 mi
11:20 am39 °FSunny.12 mph70%29.77 "Hg10 mi
10:20 am37 °FSunny.8 mph75%29.74 "Hg10 mi
9:50 am36 °FSunny.8 mph81%29.74 "Hg10 mi
9:20 am36 °FSunny.7 mph75%29.71 "Hg10 mi
8:50 am36 °FPartly sunny.7 mph75%29.71 "HgN/A
8:20 am36 °FScattered clouds.7 mph75%29.68 "HgN/A
Weather by CustomWeather, © 2024

See weather overview